星链-33817 (STARLINK-33817)

导读 | 豆包AI

STARLINK-33817是美国于2025年4月14日发射的卫星,隶属于SpaceX星链星座项目,星链计划旨在构建全球卫星互联网星座,为全球提供低延迟、高速率的互联网覆盖服务,该卫星发射补充了星链星座规模,进一步完善星座组网布局,助力提升星链系统服务覆盖范围与整体性能。

基本信息
目录编号:
63583
目录名称:
STARLINK-33817
国际标识:
2025-076Q
轨道中心:
EARTH
卫星名称:
星链-33817
卫星全名:
星链-33817 (STARLINK-33817)
卫星状态:
在轨 (已飞行334 天)
发射日期:
2025-04-14 UTC
国别 :
美国 (US)
星等 :
--
轨道信息
数据来源 国际轨道数据
星历时间: 2026-03-14T23:42:04+0800
8小时前
查看轨道信息
半长轴: 6860.991km
偏心率: 0.0001319
轨道倾角: 43.000°
近地点辐角 252.849°
升交点赤经 293.313°
平近点角 107.222°
近地点: 481.949km
远地点: 483.759km
周期: 94.263分钟
每日圈数: 15.276453
详细信息
固有亮度:
5
最大亮度:
2.5
卫星平台:
Starlink V1.0
覆盖范围:
全球
运营商:
太空探索技术公司
运营商所在国:
美国
制造商(研发单位):
太空探索技术公司
制造商所在国:
美国
使用方式:
暂无
卫星简介
Starlink 计划是 SpaceX 推出的全球卫星互联网项目,通过发射低轨道卫星,为全球尤其是偏远地区提供高速、低延迟的互联网服务。自 2019 年起,Starlink 已部署数千颗卫星,旨在缩小全球数字鸿沟,推动互联网普及。该项目还为军事、航空等行业提供通信支持,带来广泛经济效益。
2D轨道图
3D轨道图
轨道高度分析图
轨道倾角分析图
轨道综合分析图
查看轨道综合分析图